Flag for Germany Weather past 2 weeks in Berlin, Berlin, Germany

Now
27 °F

Chilly.


Feels Like: 21 °F
Forecast: 20 / 30 °F
Wind: 6 mph from East

Location: Berlin-Tempelhof

Current Time: Dec 27, 2014 at 4:54:07 PM

Latest Report: Dec 27, 2014 at 4:00 PM


Visibility: N/A

Pressure: 29.84 "Hg

Humidity: 86%

Dew point: 24 °F

Location of BerlinLocation

Historic Weather in Berlin — Graph

°F

Berlin temperature yesterday

Maximum temperature yesterday: 35 °F (at 12:00 AM)
Minimum temperature yesterday: 26 °F (at 11:00 PM)
Average temperature yesterday: 32 °F

Past Weeks' High & Low Weather Summary

 TemperatureHumidityPressure
High54 °F (Dec 19, 7:00 AM)98% (Dec 18, 12:00 AM)30.33 "Hg (Dec 18, 12:00 AM)
Low22 °F (Dec 27, 8:00 AM)61% (Dec 25, 6:00 PM)29.38 "Hg (Dec 12, 7:00 PM)
Average42 °F85%29.90 "Hg
* Reported Dec 12 4:00 PM — Dec 27 4:00 PM, Berlin, Weather by CustomWeather, © 2014

Note: Actual official high and low records may vary slightly from our data, if they occured in-between our weather recording intervals... More about our weather records

Advertising

Berlin weather history for previous 24 hours

 ConditionsComfort  
Time TempWeatherWind HumidityBarometerVisibility
4:00 PM
Dec 27
27 °FChilly.6 mph86%29.84 "HgN/A
3:00 PM27 °FChilly.6 mph88%29.85 "HgN/A
2:00 PM27 °FChilly.6 mph86%29.86 "HgN/A
1:00 PM27 °FChilly.5 mph90%29.87 "HgN/A
12:00 PM27 °FChilly.5 mph86%29.89 "HgN/A
11:00 AM26 °FChilly.3 mph92%29.92 "HgN/A
10:00 AM24 °FCold.5 mph94%29.94 "HgN/A
9:00 AM22 °FCold.3 mph93%29.97 "HgN/A
8:00 AM22 °FCold.3 mph94%29.99 "HgN/A
7:00 AM22 °FCold.5 mph94%30.01 "HgN/A
6:00 AM22 °FCold.2 mph92%30.05 "HgN/A
5:00 AM23 °FCold.1 mph94%30.09 "HgN/A
4:00 AM24 °FCold.1 mph94%30.12 "HgN/A
3:00 AM24 °FCold.2 mph94%30.15 "HgN/A
2:00 AM25 °FCold.2 mph94%30.17 "HgN/A
1:00 AM25 °FCold.2 mph94%30.21 "HgN/A
12:00 AM26 °FChilly.1 mph94%30.23 "HgN/A
11:00 PM
Dec 26
26 °FChilly.2 mph92%30.25 "HgN/A
10:00 PM27 °FChilly.1 mph88%30.27 "HgN/A
9:00 PM28 °FChilly.1 mph82%30.29 "HgN/A
8:00 PM29 °FChilly.3 mph80%30.30 "HgN/A
7:00 PM28 °FChilly.3 mph82%30.31 "HgN/A
6:00 PM28 °FChilly.3 mph82%30.32 "HgN/A
5:00 PM29 °FChilly.5 mph77%30.33 "HgN/A
4:00 PM31 °FChilly.7 mph83%30.33 "HgN/A
Weather by CustomWeather, © 2014

See weather overviewHow to use our weather pages